DW3735 Weather Reports


Display with metric or nautical units.
time (UTC)temp
F
wind
direction
speed
MPH
gust
MPH
rain 1hr
in
rain 24hr
in
rain mn
in
humidity
%
barometer
mb
20260506212017 56 293 1.0 3.0 0.00 0.00 0.00 35 1005.6
20260506211016 56 293 1.0 4.0 0.00 0.00 0.00 35 1005.5
20260506210016 56 270 2.0 4.0 0.00 0.00 0.00 35 1005.5
20260506205017 56 270 1.0 2.0 0.00 0.00 0.00 35 1005.6
20260506204017 57 0.0 2.0 0.00 0.00 0.00 35 1005.6
20260506203017 57 293 1.0 3.0 0.00 0.00 0.00 36 1005.7
20260506202017 56 0.0 0.0 0.00 0.00 0.00 37 1005.6
20260506201017 56 0.0 2.0 0.00 0.00 0.00 37 1005.6
20260506200017 56 0.0 0.0 0.00 0.00 0.00 37 1005.7
20260506195017 56 270 1.0 2.0 0.00 0.00 0.00 37 1005.7
20260506194017 56 270 1.0 6.0 0.00 0.00 0.00 38 1005.8
20260506193017 56 270 1.0 3.0 0.00 0.00 0.00 38 1005.8
20260506192057 56 270 3.0 8.0 0.00 0.00 0.00 34 1005.9
20260506191037 57 0.0 2.0 0.00 0.00 0.00 37 1006.0
20260506190018 57 0.0 2.0 0.00 0.00 0.00 37 1006.0
20260506185037 57 0.0 2.0 0.00 0.00 0.00 39 1006.0
20260506184017 56 0.0 0.0 0.00 0.00 0.00 37 1006.0
20260506183017 56 0.0 2.0 0.00 0.00 0.00 36 1006.0
20260506182017 56 225 1.0 3.0 0.00 0.00 0.00 39 1006.1
20260506181017 56 0.0 1.0 0.00 0.00 0.00 34 1006.2
20260506180037 56 270 3.0 8.0 0.00 0.00 0.00 35 1006.4
20260506175017 56 180 2.0 4.0 0.00 0.00 0.00 35 1006.5
20260506174017 56 293 3.0 6.0 0.00 0.00 0.00 36 1006.4
20260506173017 56 270 1.0 4.0 0.00 0.00 0.00 38 1006.6
20260506172017 56 225 1.0 2.0 0.00 0.00 0.00 37 1006.6
20260506171017 55 248 1.0 3.0 0.00 0.00 0.00 40 1006.6
20260506170057 55 0.0 1.0 0.00 0.00 0.00 41 1006.6
20260506165017 54 0.0 2.0 0.00 0.00 0.00 40 1006.6
20260506164017 54 338 1.0 4.0 0.00 0.00 0.00 38 1006.7
20260506163016 54 0.0 4.0 0.00 0.00 0.00 42 1007.0
20260506162057 54 180 1.0 4.0 0.00 0.00 0.00 40 1007.0
20260506161017 54 0.0 2.0 0.00 0.00 0.00 43 1007.1
20260506160017 53 180 1.0 2.0 0.00 0.02 0.00 43 1007.1
20260506155017 53 0.0 1.0 0.00 0.16 0.00 41 1007.2
20260506154057 53 0.0 0.0 0.00 0.20 0.00 46 1007.5
20260506153017 52 0.0 0.0 0.00 0.20 0.00 47 1007.8
20260506152037 52 0.0 1.0 0.00 0.21 0.00 46 1007.8
20260506151017 51 0.0 0.0 0.00 0.23 0.00 47 1007.9
20260506150016 50 0.0 0.0 0.00 0.23 0.00 51 1008.1
20260506145017 50 0.0 0.0 0.00 0.23 0.00 49 1008.1
20260506144037 49 0.0 0.0 0.00 0.23 0.00 52 1008.1
20260506143017 48 0.0 0.0 0.00 0.23 0.00 51 1007.9
20260506142037 48 0.0 0.0 0.00 0.23 0.00 52 1008.0
20260506141017 47 0.0 0.0 0.00 0.23 0.00 53 1007.9
20260506140017 47 0.0 0.0 0.00 0.23 0.00 51 1008.0
20260506135017 46 0.0 0.0 0.00 0.23 0.00 51 1007.9
20260506134017 46 0.0 0.0 0.00 0.24 0.00 55 1008.0
20260506133017 46 0.0 0.0 0.00 0.24 0.00 57 1008.0
20260506132017 45 0.0 0.0 0.00 0.24 0.00 59 1008.1
20260506131057 44 0.0 0.0 0.00 0.24 0.00 60 1008.0
20260506130017 44 0.0 0.0 0.00 0.24 0.00 62 1008.1
20260506125016 43 0.0 0.0 0.00 0.24 0.00 62 1008.0
20260506124017 43 0.0 0.0 0.00 0.24 0.00 61 1007.8
20260506123017 43 0.0 0.0 0.00 0.24 0.00 63 1007.9
20260506122016 42 0.0 0.0 0.00 0.24 0.00 65 1007.8
20260506121017 42 0.0 0.0 0.00 0.24 0.00 68 1007.8
20260506120017 41 0.0 0.0 0.00 0.24 0.00 69 1007.8
20260506115016 41 0.0 0.0 0.00 0.24 0.00 71 1007.8
20260506114017 40 0.0 0.0 0.00 0.24 0.00 73 1008.0
20260506113017 40 0.0 0.0 0.00 0.24 0.00 75 1008.0
20260506112017 40 0.0 0.0 0.00 0.24 0.00 75 1008.0
20260506111037 39 0.0 0.0 0.00 0.24 0.00 76 1007.9
20260506110017 39 0.0 0.0 0.00 0.24 0.00 74 1007.9
20260506105017 39 0.0 0.0 0.00 0.24 0.00 74 1007.9
20260506104016 38 0.0 0.0 0.00 0.24 0.00 75 1007.7
20260506103017 38 0.0 0.0 0.00 0.24 0.00 76 1007.5
20260506102017 38 0.0 0.0 0.00 0.24 0.00 76 1007.8
20260506101017 38 0.0 0.0 0.00 0.24 0.00 75 1007.8
20260506100017 38 0.0 0.0 0.00 0.24 0.00 74 1007.9
20260506095017 38 0.0 0.0 0.00 0.24 0.00 74 1007.9
20260506094017 39 0.0 0.0 0.00 0.24 0.00 74 1007.7
20260506093017 39 0.0 0.0 0.00 0.24 0.00 73 1007.4
20260506092017 39 0.0 0.0 0.00 0.24 0.00 72 1007.5
20260506091017 39 0.0 0.0 0.00 0.24 0.00 72 1007.7
20260506090017 39 0.0 0.0 0.00 0.24 0.00 72 1007.5
20260506085017 39 0.0 0.0 0.00 0.24 0.00 71 1007.5
20260506084017 40 0.0 0.0 0.00 0.24 0.00 70 1007.4
20260506083017 40 0.0 0.0 0.00 0.24 0.00 68 1007.4
20260506082017 40 0.0 0.0 0.00 0.24 0.00 68 1007.6
20260506081017 40 0.0 0.0 0.00 0.24 0.00 68 1007.6
20260506073017 41 0.0 0.0 0.00 0.24 0.00 62 1007.2
20260506072017 42 0.0 0.0 0.00 0.24 0.00 62 1007.3
20260506071017 42 0.0 0.0 0.00 0.24 0.00 62 1007.2
20260506062017 43 0.0 0.0 0.00 0.24 0.00 56 1007.2
20260506061037 43 0.0 0.0 0.00 0.24 0.00 57 1007.2
20260506051017 45 0.0 0.0 0.00 0.24 0.00 50 1006.8
20260506045017 46 0.0 0.0 0.00 0.24 0.00 53 1006.8
20260506044017 46 0.0 0.0 0.00 0.24 0.00 50 1006.7
20260506043016 46 0.0 0.0 0.00 0.24 0.00 47 1006.6
20260506042017 47 0.0 0.0 0.00 0.24 0.00 47 1006.6
20260506041017 47 0.0 0.0 0.00 0.24 0.00 46 1006.6
20260506040017 48 0.0 0.0 0.00 0.24 0.24 48 1006.4
20260506035017 48 0.0 1.0 0.00 0.24 0.24 45 1006.4
20260506034037 48 0.0 2.0 0.00 0.24 0.24 44 1006.2
20260506033017 48 293 1.0 2.0 0.00 0.24 0.24 44 1006.2
20260506032037 49 0.0 2.0 0.00 0.24 0.24 46 1006.2
20260506031017 49 0.0 0.0 0.00 0.24 0.24 44 1006.2
20260506030017 49 0.0 2.0 0.00 0.24 0.24 42 1006.0
20260506025017 50 0.0 0.0 0.00 0.24 0.24 42 1005.9
20260506024017 50 0.0 2.0 0.00 0.24 0.24 42 1005.9
20260506023037 50 0.0 2.0 0.00 0.24 0.24 42 1005.7
20260506022017 51 293 1.0 3.0 0.00 0.24 0.24 41 1005.6
20260506021017 51 270 1.0 3.0 0.00 0.24 0.24 42 1005.5
20260506020017 51 270 1.0 3.0 0.00 0.24 0.24 42 1005.3
20260506015017 51 0.0 2.0 0.00 0.24 0.24 45 1005.1
20260506014017 51 0.0 1.0 0.00 0.24 0.24 45 1005.0
20260506013017 51 270 1.0 3.0 0.00 0.24 0.24 44 1004.7
20260506012037 51 270 1.0 3.0 0.00 0.24 0.24 47 1004.6
20260506011017 52 0.0 3.0 0.00 0.24 0.24 48 1004.3
20260506010017 52 248 1.0 4.0 0.00 0.24 0.24 47 1004.1
20260506005017 52 248 1.0 3.0 0.00 0.24 0.24 46 1003.9
20260506004017 53 225 1.0 3.0 0.00 0.24 0.24 46 1003.6
20260506003017 53 225 1.0 3.0 0.00 0.24 0.24 47 1003.4
20260506002017 53 225 1.0 3.0 0.00 0.24 0.24 48 1003.2
20260506001017 53 248 2.0 4.0 0.00 0.24 0.24 48 1003.0
20260506000017 54 225 2.0 3.0 0.00 0.24 0.24 48 1003.0
20260505235037 54 248 1.0 3.0 0.00 0.24 0.24 46 1002.8
20260505234037 54 225 2.0 7.0 0.00 0.24 0.24 45 1002.5
20260505233018 55 225 2.0 5.0 0.00 0.24 0.24 46 1002.4
20260505232017 55 225 1.0 4.0 0.00 0.24 0.24 47 1002.2
20260505231017 55 225 2.0 5.0 0.00 0.24 0.24 47 1002.0
20260505230017 55 270 2.0 7.0 0.00 0.24 0.24 46 1001.8
20260505225017 55 248 3.0 9.0 0.00 0.24 0.24 49 1001.7
20260505224037 56 270 2.0 9.0 0.00 0.24 0.24 51 1001.6
20260505223017 56 225 1.0 3.0 0.00 0.24 0.24 54 1001.7
20260505222017 56 270 2.0 6.0 0.00 0.24 0.24 54 1001.4
20260505221017 56 225 2.0 6.0 0.00 0.24 0.24 54 1001.2
20260505220017 56 225 2.0 3.0 0.00 0.24 0.24 56 1001.2
20260505215017 56 225 2.0 4.0 0.00 0.24 0.24 57 1001.1
20260505214037 56 225 1.0 5.0 0.00 0.24 0.24 60 1000.6
20260505213017 56 225 1.0 3.0 0.00 0.24 0.24 61 1000.7